This is the latest recevied weather packets stored in our database for station/object DL9GRB-13. If no packets are shown the sender has not sent any weather packets the latest 10 day(s).
| Time | Temp. | Humidity | Pressure | Rain* | Wind** | Luminosity | Snow |
|---|---|---|---|---|---|---|---|
| 1777388166 | 15° C | 32% | 1026 hPa | 0 mm | - | 369 W/m² | - |
| 1777387985 | 15° C | 33% | 1025.9 hPa | 0 mm | - | 385 W/m² | - |
| 1777387805 | 14.44° C | 35% | 1025.9 hPa | 0 mm | - | 393 W/m² | - |
| 1777387625 | 14.44° C | 34% | 1026 hPa | 0 mm | - | 401 W/m² | - |
| 1777387445 | 13.89° C | 36% | 1025.8 hPa | 0 mm | - | 405 W/m² | - |
| 1777387266 | 13.89° C | 37% | 1026 hPa | 0 mm | - | 409 W/m² | - |
| 1777387085 | 13.89° C | 37% | 1026 hPa | 0 mm | - | 406 W/m² | - |
| 1777386905 | 13.89° C | 37% | 1026.1 hPa | 0 mm | - | 420 W/m² | - |
| 1777386725 | 13.89° C | 39% | 1026 hPa | 0 mm | - | 446 W/m² | - |
| 1777386545 | 13.89° C | 39% | 1026.1 hPa | 0 mm | - | 458 W/m² | - |
| 1777386365 | 13.33° C | 40% | 1026.1 hPa | 0 mm | - | 430 W/m² | - |
| 1777386185 | 13.33° C | 41% | 1026.2 hPa | 0 mm | - | 473 W/m² | - |
| 1777386005 | 13.33° C | 43% | 1026.2 hPa | 0 mm | - | 463 W/m² | - |
| 1777385825 | 12.78° C | 43% | 1026.3 hPa | 0 mm | - | 387 W/m² | - |
| 1777385645 | 13.33° C | 41% | 1026.4 hPa | 0 mm | - | 373 W/m² | - |
| 1777385465 | 13.33° C | 36% | 1026.2 hPa | 0 mm | - | 410 W/m² | - |
| 1777385285 | 13.33° C | 40% | 1026.4 hPa | 0 mm | - | 322 W/m² | - |
| 1777385105 | 13.33° C | 39% | 1026.2 hPa | 0 mm | - | 338 W/m² | - |
| 1777384925 | 13.89° C | 37% | 1026.3 hPa | 0 mm | - | 354 W/m² | - |
| 1777384746 | 13.89° C | 38% | 1026.4 hPa | 0 mm | - | 343 W/m² | - |
| 1777384565 | 13.89° C | 38% | 1026.2 hPa | 0 mm | - | 386 W/m² | - |
| 1777384385 | 13.89° C | 38% | 1026.3 hPa | 0 mm | - | 372 W/m² | - |
| 1777384205 | 14.44° C | 35% | 1026.4 hPa | 0 mm | - | 388 W/m² | - |
| 1777384025 | 13.89° C | 36% | 1026.4 hPa | 0 mm | - | 382 W/m² | - |
| 1777383845 | 13.89° C | 40% | 1026.5 hPa | 0 mm | - | 391 W/m² | - |
* Rain latest hour (hover to see other rain measurements)
** Current wind speed in m/s (hover to see current wind gust speed)